sat.trackr.live / text

‹ back to catalog

STARLINK-30787

NORAD 58128 · 2023-162L

PAYLOAD ACTIVE UNKNOWN

§ Identity

Operator
Country
US
Launch date
2023-10-22
Launch site
AFETR
Launch vehicle
Mass (kg)
RCS (m²)

Purposes: comms

External: N2YO · Heavens-Above · Gunter

§ Orbital elements

Epoch: 2026-05-25T02:52:55.848576Z

Period
94.27 min
Inclination
43.0046°
Eccentricity
0.0000891
Mean motion
15.27573971 rev/d
Perigee alt
482.5 km
Apogee alt
483.7 km
Semi-major
6,861.2 km
B*
1.2406e-5
RAAN
57.6539°
Arg perigee
259.0772°
Mean anomaly
100.9979°
Rev number
14,403

§ Raw data

STARLINK-307871 58128U 23162L   26145.12009084  .00000079  00000+0  12406-4 0  99922 58128  43.0046  57.6539 0000891 259.0772 100.9979 15.27573971144032

JSON: /api/v1/satellites/58128 · /tle

For live sub-satellite position, see the globe view (requires WebGL).

§ Visibility from observer

Set your observer location to see the next 7 days of passes ≥ 10°. The values pass through the URL so the page stays shareable.

No JS? Fill the form by hand. The geolocation button needs JavaScript.